2023/06/27 00:00:00, 0.4,20.5
2023/06/27 00:10:00, 0.4,20.5
2023/06/27 00:20:00, 0.4,20.5
2023/06/27 00:30:00, 0.3,20.4
2023/06/27 00:40:00, 0.3,20.4
2023/06/27 00:50:00, 0.3,20.4
2023/06/27 01:00:00, 0.3,20.4
2023/06/27 01:10:00, 0.3,20.4
2023/06/27 01:20:00, 0.3,20.5
2023/06/27 01:30:00, 0.3,20.4
2023/06/27 01:40:00, 0.3,20.5
2023/06/27 01:50:00, 0.3,20.3
2023/06/27 02:00:00, 0.3,20.4
2023/06/27 02:10:00, 0.3,20.4
2023/06/27 02:20:00, 0.3,20.3
2023/06/27 02:30:00, 0.3,20.2
2023/06/27 02:40:00, 0.4,20.1
2023/06/27 02:50:00, 0.5,20.2
2023/06/27 03:00:00, 0.5,20.0
2023/06/27 03:10:00, 0.4,20.1
2023/06/27 03:20:00, 0.5,20.1
2023/06/27 03:30:00, 0.5,19.9
2023/06/27 03:40:00, 0.4,20.0
2023/06/27 03:50:00, 0.4,19.8
2023/06/27 04:00:00, 0.5,19.9
2023/06/27 04:10:00, 0.5,20.0
2023/06/27 04:20:00, 0.5,19.7
2023/06/27 04:30:00, 0.5,19.8
2023/06/27 04:40:00, 0.4,19.8
2023/06/27 04:50:00, 0.4,20.1
2023/06/27 05:00:00, 0.4,20.3
2023/06/27 05:10:00, 0.5,20.4
2023/06/27 05:20:00, 0.4,20.4
2023/06/27 05:30:00, 0.3,20.4
2023/06/27 05:40:00, 0.3,20.5
2023/06/27 05:50:00, 0.3,20.8
2023/06/27 06:00:00, 0.3,21.1
2023/06/27 06:10:00, 0.3,21.6
2023/06/27 06:20:00, 0.4,21.9
2023/06/27 06:30:00, 0.3,21.9
2023/06/27 06:40:00, 0.4,22.0
2023/06/27 06:50:00, 0.3,21.7
2023/06/27 07:00:00, 0.3,22.6
2023/06/27 07:10:00, 0.3,23.3
2023/06/27 07:20:00, 0.3,24.0
2023/06/27 07:30:00, 0.2,23.9
2023/06/27 07:40:00, 0.2,24.3
2023/06/27 07:50:00, 0.2,24.2
2023/06/27 08:00:00, 0.2,24.0
2023/06/27 08:10:00, 0.2,24.4
2023/06/27 08:20:00, 0.3,24.7
2023/06/27 08:30:00, 0.2,25.2
2023/06/27 08:40:00, 0.2,26.0
2023/06/27 08:50:00, 0.1,26.2
2023/06/27 09:00:00, 0.2,26.7
2023/06/27 09:10:00, 0.2,27.9
2023/06/27 09:20:00, 0.1,28.4
2023/06/27 09:30:00, 0.0,28.9
2023/06/27 09:40:00, 0.1,28.5
2023/06/27 09:50:00, 0.0,28.2
2023/06/27 10:00:00, 0.1,28.2
2023/06/27 10:10:00, 0.0,27.7
2023/06/27 10:20:00, 0.0,28.6
2023/06/27 10:30:00, 0.0,29.1
2023/06/27 10:40:00, 0.0,29.9
2023/06/27 10:50:00, 0.1,29.0
2023/06/27 11:00:00, 0.2,29.4
2023/06/27 11:10:00, 0.0,29.7
2023/06/27 11:20:00, 0.2,29.9
2023/06/27 11:30:00, 0.3,30.0
2023/06/27 11:40:00, 0.2,29.5
2023/06/27 11:50:00, 0.1,29.0
2023/06/27 12:00:00, 0.0,29.3
2023/06/27 12:10:00, 0.1,29.1
2023/06/27 12:20:00, 0.1,29.0
2023/06/27 12:30:00, 0.0,29.1
2023/06/27 12:40:00, 0.0,29.3
2023/06/27 12:50:00, 0.0,29.2
2023/06/27 13:00:00, 0.0,29.0
2023/06/27 13:10:00, 0.0,29.0
2023/06/27 13:20:00, 0.0,29.7
2023/06/27 13:30:00, 0.0,30.4
2023/06/27 13:40:00, 0.1,29.8
2023/06/27 13:50:00, 0.1,29.8
2023/06/27 14:00:00, 0.2,29.2
2023/06/27 14:10:00, 0.1,29.5
2023/06/27 14:20:00, 0.0,29.6
2023/06/27 14:30:00, 0.1,29.9
2023/06/27 14:40:00, 0.1,30.4
2023/06/27 14:50:00, 0.1,29.3
2023/06/27 15:00:00, 0.1,28.9
2023/06/27 15:10:00, 0.1,29.0
2023/06/27 15:20:00, 0.1,28.7
2023/06/27 15:30:00, 0.1,28.5
2023/06/27 15:40:00, 0.1,28.6
2023/06/27 15:50:00, 0.2,28.3
2023/06/27 16:00:00, 0.2,28.5
2023/06/27 16:10:00, 0.2,28.3
2023/06/27 16:20:00, 0.2,28.0
2023/06/27 16:30:00, 0.2,28.6
2023/06/27 16:40:00, 0.2,28.9
2023/06/27 16:50:00, 0.2,28.5
2023/06/27 17:00:00, 0.2,28.6
2023/06/27 17:10:00, 0.2,28.6
2023/06/27 17:20:00, 0.2,28.0
2023/06/27 17:30:00, 0.2,28.0
2023/06/27 17:40:00, 0.2,27.8
2023/06/27 17:50:00, 0.2,27.6
2023/06/27 18:00:00, 0.2,27.5
2023/06/27 18:10:00, 0.2,27.6
2023/06/27 18:20:00, 0.2,26.7
2023/06/27 18:30:00, 0.2,27.6
2023/06/27 18:40:00, 0.2,26.5
2023/06/27 18:50:00, 0.2,26.3
2023/06/27 19:00:00, 0.2,25.8
2023/06/27 19:10:00, 0.3,25.9
2023/06/27 19:20:00, 0.3,25.8
2023/06/27 19:30:00, 0.3,25.6
2023/06/27 19:40:00, 0.3,25.5
2023/06/27 19:50:00, 0.3,25.0
2023/06/27 20:00:00, 0.3,24.3
2023/06/27 20:10:00, 0.3,24.6
2023/06/27 20:20:00, 0.3,24.4
2023/06/27 20:30:00, 0.3,24.2
2023/06/27 20:40:00, 0.3,23.9
2023/06/27 20:50:00, 0.3,24.0
2023/06/27 21:00:00, 0.3,23.9
2023/06/27 21:10:00, 0.3,23.7
2023/06/27 21:20:00, 0.4,23.6
2023/06/27 21:30:00, 0.4,23.5
2023/06/27 21:40:00, 0.4,23.2
2023/06/27 21:50:00, 0.4,23.4
2023/06/27 22:00:00, 0.4,23.3
2023/06/27 22:10:00, 0.4,23.2
2023/06/27 22:20:00, 0.4,23.4
2023/06/27 22:30:00, 0.3,23.2
2023/06/27 22:40:00, 0.3,23.2
2023/06/27 22:50:00, 0.4,22.8
2023/06/27 23:00:00, 0.4,22.7
2023/06/27 23:10:00, 0.4,22.8
2023/06/27 23:20:00, 0.4,22.6
2023/06/27 23:30:00, 0.4,22.9
2023/06/27 23:40:00, 0.4,23.0
2023/06/27 23:50:00, 0.4,22.6
